FW1597 Weather Reports


time (UTC)temp
C
wind
direction
speed
KPH
gust
KPH
rain 1hr
cm
rain 24hr
cm
rain mn
cm
humidity
%
barometer
mb
20260504110116 2 350 19.3 54.7 0.13 1.85 0.51 90 989.0
20260504081517 3 180 12.9 37.0 0.03 1.65 0.30 90 980.7
20260504044557 3 183 4.8 16.1 0.05 1.50 0.15 93 974.2
20260504043044 3 187 4.8 12.9 0.05 1.45 0.13 93 973.6
20260504041542 3 197 3.2 14.5 0.08 1.45 0.13 93 973.1
20260504040042 3 180 4.8 32.2 0.10 1.42 0.10 93 972.9
20260504034545 3 144 8.0 32.2 0.15 1.42 0.10 92 973.2
20260504033049 3 138 11.3 24.1 0.15 1.42 0.08 92 973.8
20260504031533 3 150 16.1 40.2 0.10 1.40 0.05 92 974.6
20260504030027 3 136 14.5 32.2 0.05 1.37 0.00 92 975.8
20260504024524 3 177 14.5 43.5 0.03 1.32 1.32 92 976.5
20260504023020 3 138 14.5 37.0 0.00 1.30 1.30 92 977.4
20260504021525 4 166 11.3 32.2 0.00 1.30 1.30 92 978.5
20260504020016 4 127 12.9 30.6 0.00 1.30 1.30 92 979.2
20260504014514 5 109 14.5 30.6 0.03 1.30 1.30 92 980.0
20260504013009 5 113 11.3 33.8 0.05 1.30 1.30 93 980.9
20260504011503 5 92 11.3 29.0 0.05 1.30 1.30 93 981.9
20260504010112 5 160 9.7 29.0 0.08 1.30 1.30 93 982.3
20260504004601 5 153 6.4 27.4 0.08 1.27 1.27 93 983.0
20260504003055 5 140 9.7 19.3 0.05 1.24 1.24 93 983.3
20260504001609 4 86 6.4 27.4 0.05 1.24 1.24 92 984.2
20260504000050 4 194 4.8 20.9 0.05 1.22 1.22 92 984.9
20260503234547 4 71 12.9 40.2 0.13 1.19 1.19 92 985.4
20260503233043 4 84 8.0 24.1 0.25 1.19 1.19 93 986.6
20260503231541 4 32 11.3 22.5 0.36 1.17 1.17 93 987.5
20260503230037 3 138 4.8 19.3 0.46 1.17 1.17 92 988.4
20260503224537 3 31 6.4 20.9 0.46 1.09 1.09 92 989.2
20260503223034 3 78 8.0 19.3 0.46 0.91 0.91 92 989.8
20260503221537 3 65 6.4 22.5 0.43 0.81 0.81 92 990.9
20260503220026 3 48 8.0 24.1 0.33 0.71 0.71 92 992.3
20260503214525 3 57 6.4 17.7 0.33 0.61 0.61 92 993.1
20260503213029 3 124 8.0 19.3 0.23 0.46 0.46 92 993.5
20260503211520 3 71 8.0 25.7 0.23 0.38 0.38 91 994.4
20260503210015 3 119 9.7 22.5 0.25 0.38 0.38 91 994.7
20260503204514 3 111 4.8 20.9 0.23 0.30 0.30 91 995.2
20260503203009 4 197 8.0 25.7 0.15 0.23 0.23 90 996.0
20260503201523 5 161 6.4 19.3 0.08 0.15 0.15 91 996.3
20260503200108 5 77 8.0 22.5 0.10 0.13 0.13 90 996.7
20260503194503 5 89 6.4 19.3 0.05 0.08 0.08 90 998.2
20260503193001 5 80 11.3 25.7 0.05 0.05 0.05 89 998.9
20260503191602 5 100 4.8 27.4 0.05 0.05 0.05 88 999.6
20260503190059 5 159 6.4 22.5 0.03 0.03 0.03 87 1000.0
20260503184553 6 113 4.8 20.9 0.03 0.03 0.03 85 1000.9
20260503183051 6 88 4.8 20.9 0.03 0.03 0.03 85 1001.8
20260503181618 6 11 3.2 6.4 0.03 0.03 0.03 86 1002.7
20260503180050 5 229 3.2 12.9 0.00 0.00 0.00 86 1003.1
20260503174543 6 336 1.6 8.0 0.00 0.00 0.00 84 1004.6
20260503173052 6 34 4.8 9.7 0.00 0.00 0.00 80 1005.1
20260503171537 6 59 1.6 12.9 0.00 0.00 0.00 78 1006.2